Regional Weather Roundup
Issued by NWS

Home | Current Version | Previous Version | Graphics & Text | Print | Product List | Glossary On
Versions: 1 2 3 4 5 6 7 8 9 10 11 12 13 14 15 16 17 18 19 20 21 22 23 24 25 26 27 28 29 30 31 32 33 34 35 36 37 38 39 40 41 42 43 44 45 46 47 48 49 50
000
ASUS43 KFSD 051910
RWRSD

WEATHER ROUNDUP FOR SOUTH DAKOTA
NATIONAL WEATHER SERVICE SIOUX FALLS SD
100 PM CST MON DEC 05 2016

NOTE: "FAIR" INDICATES FEW OR NO CLOUDS BELOW 12,000 FEET WITH NO
SIGNIFICANT WEATHER AND/OR OBSTRUCTIONS TO VISIBILITY.


SDZ001>005-009-010-012>017-052000-
NORTHWEST AND NORTH CENTRAL SOUTH DAKOTA

CITY           SKY/WX    TMP DP  RH WIND       PRES   REMARKS
BUFFALO          N/A     24  14  65 NW39G51   29.61R WCI   5
FAITH            N/A     24  22  91 NW32G44   29.63R WCI   6
MOBRIDGE       SNOW      32  28  85 NW23G31   29.51F VSB 1/4 WCI  19
$$

SDZ012>016-024>037-041>051-057-063-072>074-052000-
SOUTHWEST AND SOUTH CENTRAL SOUTH DAKOTA

CITY           SKY/WX    TMP DP  RH WIND       PRES   REMARKS
RAPID CTY ARPT CLOUDY    27  16  63 NW41G51   29.65R WCI   8
PIERRE         LGT RAIN  33  28  81 NW32G40   29.54R WCI  19
CUSTER         CLOUDY    23   8  52 NW16G30   29.56R WCI  10
ELLSWORTH AFB  CLOUDY    27  16  63 NW39G48   29.65  WCI   8
PINE RIDGE     LGT SNOW  28  24  85 N15G29    29.68R FOG     WCI  16
SPEARFISH      LGT SNOW  21  16  79 NW24G37   29.72R WCI   4
WINNER         MOCLDY    39  30  70 NW30G40   29.55R
$$

SDZ004>011-016>023-039-040-052000-
NORTHEAST SOUTH DAKOTA

CITY           SKY/WX    TMP DP  RH WIND       PRES   REMARKS
ABERDEEN       CLOUDY    39  29  67 NE3       29.47F
WATERTOWN      CLOUDY    37  31  78 SE12      29.45F
BROOKINGS      MOSUNNY   38  32  79 S15       29.45F
SISSETON         N/A     33  31  92 SE8       29.50F WCI  26
$$

SDZ017-020-022-023-036>040-048>070-052000-
SOUTHEAST SOUTH DAKOTA

CITY           SKY/WX    TMP DP  RH WIND       PRES   REMARKS
SIOUX FALLS    MOSUNNY   45  34  65 S17G24    29.50F
HURON          SUNNY     43  31  62 SW8       29.45F
CHAMBERLAIN    MOSUNNY   39  32  75 W28G33    29.52S
MITCHELL       MOSUNNY   46  32  58 SW10      29.46F
YANKTON        MOSUNNY   45  28  53 S20       29.49F
$$

ABBREVIATIONS USED IN REMARKS
   TC - TEMPERATURE IN CELSIUS
  WCI - WIND CHILL INDEX
   HX - HEAT INDEX
  VSB - VISIBILITY





USA.gov is the U.S. government's official web portal to all federal, state and local government web resources and services.